Wind_Speed
69 71 73 75 78 79 81 84 86 87 84 83 84 86 88 89 90 91 91 91 91 90 91 91 93 93 94 93 93 92 91 90 89 87 86 84 82 81
72 75 77 78 80 82 84 86 87 89 89 85 85 85 86 86 86 87 87 87 86 86 85 85 86 87 89 89 90 90 90 89 88 87 86 85 83 82
76 78 79 81 82 84 85 85 86 86 87 83 81 81 82 81 80 79 77 76 75 74 73 73 73 74 76 78 81 82 84 85 85 85 85 83 82 81
78 80 81 82 83 83 83 83 82 82 83 81 76 74 73 73 71 69 67 66 64 63 63 63 64 65 66 67 70 72 74 77 79 80 80 81 80 79
80 81 82 83 82 81 80 79 78 78 77 75 70 67 65 63 62 60 58 58 57 57 57 57 58 58 59 60 61 63 65 68 70 72 73 75 76 77
80 81 82 82 80 79 77 75 73 71 69 67 64 59 57 55 55 53 52 52 52 52 53 53 53 52 53 53 55 56 58 60 62 65 67 68 70 71
80 81 80 79 77 74 72 69 67 65 62 59 56 52 50 49 49 49 48 47 47 48 48 48 48 48 48 48 49 50 52 53 56 58 61 63 65 66
80 79 76 74 71 69 67 64 62 59 56 53 50 48 46 46 45 45 45 44 43 43 44 43 43 43 44 44 45 46 46 48 50 53 55 58 60 62
79 75 72 69 66 64 61 58 55 53 51 49 47 46 44 44 43 43 43 42 40 39 39 38 38 39 40 41 41 42 43 44 46 48 51 53 56 58
74 71 68 64 62 59 56 53 50 48 47 47 46 44 43 42 42 41 40 39 37 36 37 36 35 36 38 38 39 39 40 41 41 43 46 49 51 55
69 66 63 59 56 54 52 49 46 45 45 44 43 42 41 41 40 40 39 38 36 34 34 34 34 35 35 36 37 38 38 39 40 40 42 45 47 50
64 60 57 55 52 50 48 46 44 42 42 41 40 40 39 39 38 38 38 38 36 33 33 34 34 35 34 34 35 36 37 38 39 40 41 42 45 47
59 55 52 49 47 46 45 43 42 41 40 38 38 37 37 37 37 37 37 37 36 35 33 33 33 34 34 33 33 35 36 36 37 38 40 41 42 44
54 50 47 45 44 43 42 42 41 40 39 37 36 35 35 35 35 35 35 35 35 35 34 34 33 33 34 33 32 33 34 35 36 37 38 40 42 43
49 46 44 43 42 41 41 40 40 39 37 36 35 35 34 33 33 33 34 35 35 35 35 35 34 34 34 33 33 33 33 34 35 36 38 40 41 42
45 43 42 41 41 40 39 39 38 36 35 35 34 33 33 33 33 33 34 34 35 35 35 35 35 34 34 34 33 33 34 34 35 36 37 39 40 42
42 40 39 38 37 37 37 36 35 35 34 34 33 33 33 33 33 34 34 34 34 34 33 34 33 33 33 32 32 32 33 33 35 36 37 38 39 40
40 39 37 36 36 35 34 33 33 33 33 33 33 33 32 33 33 33 33 34 33 33 32 32 32 32 32 32 32 32 32 33 34 35 36 37 38 40
39 38 36 35 34 33 33 32 32 32 31 32 32 32 32 32 33 33 33 33 32 32 32 32 33 33 32 31 32 33 33 33 33 34 34 35 36 38
38 37 35 34 33 32 32 31 31 31 31 31 32 32 32 32 32 32 32 31 31 31 31 31 31 31 31 31 30 31 32 33 33 34 35 36 36 37
36 35 34 33 32 32 31 31 30 30 31 31 31 31 31 31 31 31 30 30 30 30 30 29 30 30 30 29 29 29 31 33 33 34 34 35 36 36
35 34 33 32 31 31 31 30 30 30 30 30 30 29 29 30 30 30 30 30 30 30 29 29 29 29 29 29 28 28 30 31 33 33 33 34 35 35
33 32 31 31 30 30 30 29 29 29 29 28 27 27 27 28 28 29 29 30 30 30 30 29 29 29 29 29 29 29 30 31 32 33 33 34 34 34
Wind_Direction
297 297 297 296 296 295 294 293 292 291 289 288 286 285 283 282 281 280 278 276 275 273 270 268 266 264 263 261 260 259 258 257 256 256 255 255 255 255
298 298 298 297 296 296 295 294 293 292 290 289 288 287 285 284 283 282 280 278 277 275 273 270 268 265 263 261 259 258 257 256 255 254 254 253 253 253
300 299 299 298 298 297 296 295 294 293 292 291 290 288 286 285 284 283 281 279 278 276 274 272 270 268 265 263 261 259 257 256 254 253 252 252 252 252
301 301 300 300 299 298 297 296 295 294 293 293 291 289 287 286 285 283 282 280 279 277 275 274 272 270 268 265 263 260 258 256 254 253 252 250 250 249
303 302 302 301 300 299 298 297 296 295 294 294 293 290 288 287 285 283 282 281 280 279 278 276 274 272 270 267 264 261 258 255 253 252 250 249 248 247
304 304 303 302 301 300 299 298 296 295 295 294 293 291 289 287 285 284 282 281 281 280 280 278 275 272 270 268 265 262 259 256 253 251 249 247 247 246
305 304 303 302 301 300 299 298 296 295 294 294 293 291 290 288 286 285 284 282 282 282 280 278 276 273 271 269 266 263 260 257 254 251 248 246 245 244
306 305 303 302 301 300 298 297 297 296 295 293 292 291 290 289 287 286 285 284 283 282 281 279 276 274 271 270 268 264 261 257 254 251 249 246 244 243
306 304 303 301 300 299 297 296 296 295 294 293 293 292 291 289 288 287 286 286 285 283 281 279 276 274 272 270 268 265 263 259 255 252 249 247 245 243
305 304 302 301 299 298 297 296 295 294 293 292 292 292 292 291 289 289 288 287 287 285 283 280 277 274 272 270 268 265 262 260 256 252 249 248 246 243
305 304 302 301 299 298 297 296 295 293 292 292 291 292 291 290 289 289 288 288 288 285 284 282 279 276 273 271 269 266 263 260 256 253 251 249 246 245
304 303 302 301 299 298 297 296 295 294 292 291 291 292 291 290 289 289 288 288 288 287 284 282 280 278 275 273 270 267 263 261 258 255 252 249 247 245
304 303 302 301 300 298 298 297 296 295 293 291 291 291 290 289 288 287 287 288 288 288 285 283 280 278 277 273 270 268 264 261 258 255 251 249 247 245
304 303 302 302 300 299 298 298 296 295 294 292 292 292 290 288 287 286 286 287 287 287 286 284 282 279 277 275 271 268 265 262 259 256 253 250 248 246
305 304 303 302 301 299 298 298 296 295 294 293 293 292 291 289 288 287 287 286 286 286 285 284 282 280 277 275 272 269 266 264 261 258 254 251 249 247
304 304 303 302 301 300 299 298 296 295 294 293 293 292 291 290 290 289 289 288 286 285 285 283 282 280 278 275 273 270 267 264 261 259 256 253 250 248
304 304 303 301 300 300 299 297 296 295 294 294 293 293 292 291 291 290 290 289 288 286 284 283 282 280 279 277 274 271 268 265 262 259 257 254 252 250
307 307 305 303 302 301 300 297 296 295 294 294 294 294 293 292 292 292 290 289 288 286 284 282 281 280 278 276 274 272 269 266 263 261 259 256 253 251
308 308 306 305 303 303 301 299 297 296 295 294 294 294 294 293 293 292 291 290 288 286 284 282 281 280 278 276 274 272 270 267 265 262 260 258 255 253
308 308 307 306 305 304 302 301 300 298 297 295 295 294 294 294 293 293 292 291 289 288 286 284 282 280 278 276 274 273 271 269 266 264 261 260 258 256
308 308 307 306 305 304 303 302 301 300 299 298 296 295 294 294 294 294 293 292 291 289 288 286 284 282 281 278 275 273 271 270 268 266 264 261 259 257
308 308 307 306 305 304 304 303 302 302 301 300 298 297 295 295 295 295 294 293 292 291 289 286 284 283 282 280 277 274 272 271 270 268 267 264 261 258
307 307 307 306 306 305 305 305 304 304 303 302 300 299 298 297 297 296 296 294 293 292 290 288 285 283 282 281 279 277 275 273 272 270 268 265 263 259
Height
5655 5648 5642 5634 5626 5618 5610 5602 5594 5590 5593 5591 5582 5573 5564 5559 5554 5549 5547 5545 5542 5540 5539 5538 5539 5540 5542 5545 5548 5552 5556 5561 5566 5571 5576 5582 5587 5592
5636 5629 5621 5613 5604 5596 5587 5578 5569 5559 5559 5563 5554 5545 5536 5530 5525 5520 5517 5514 5511 5509 5507 5507 5507 5508 5511 5514 5518 5522 5527 5532 5538 5544 5550 5556 5562 5568
5616 5607 5599 5590 5581 5572 5562 5553 5544 5534 5527 5533 5527 5518 5509 5503 5498 5494 5490 5487 5485 5482 5480 5479 5479 5480 5482 5485 5489 5494 5499 5504 5510 5516 5523 5530 5537 5545
5595 5585 5576 5566 5557 5547 5538 5529 5520 5510 5501 5501 5502 5493 5485 5478 5473 5470 5467 5464 5462 5460 5458 5457 5457 5457 5459 5461 5464 5468 5473 5477 5483 5490 5498 5507 5514 5519
5573 5563 5553 5542 5533 5523 5514 5505 5496 5488 5479 5474 5475 5470 5463 5457 5452 5450 5447 5444 5442 5441 5439 5438 5438 5437 5438 5440 5442 5445 5449 5455 5461 5466 5472 5480 5488 5496
5551 5540 5529 5519 5509 5500 5491 5483 5474 5466 5459 5453 5451 5449 5445 5439 5434 5432 5430 5428 5426 5424 5422 5421 5420 5420 5420 5421 5424 5426 5429 5433 5438 5444 5450 5457 5465 5473
5530 5518 5507 5497 5487 5477 5469 5462 5454 5447 5441 5436 5433 5430 5428 5423 5419 5416 5414 5413 5412 5409 5406 5405 5404 5404 5404 5404 5406 5408 5411 5414 5419 5424 5430 5437 5444 5452
5508 5497 5486 5476 5467 5458 5450 5442 5435 5429 5424 5420 5417 5415 5412 5409 5405 5402 5399 5398 5397 5396 5392 5391 5389 5389 5389 5390 5390 5392 5395 5398 5402 5407 5412 5419 5425 5433
5485 5476 5466 5457 5447 5440 5433 5426 5420 5414 5409 5405 5403 5400 5397 5394 5391 5389 5386 5384 5383 5381 5378 5378 5377 5376 5376 5376 5377 5378 5381 5383 5387 5391 5396 5402 5408 5415
5464 5455 5446 5439 5429 5422 5416 5412 5407 5402 5396 5392 5389 5387 5384 5381 5377 5375 5372 5371 5370 5368 5366 5365 5365 5364 5363 5364 5364 5366 5368 5370 5373 5377 5382 5387 5392 5399
5446 5436 5427 5420 5413 5405 5400 5396 5393 5389 5384 5379 5376 5374 5371 5368 5365 5362 5360 5358 5358 5357 5355 5353 5353 5352 5352 5353 5353 5353 5355 5358 5361 5364 5368 5373 5378 5384
5429 5420 5411 5403 5397 5391 5386 5382 5379 5375 5371 5368 5365 5362 5359 5356 5353 5350 5348 5346 5345 5346 5345 5342 5342 5340 5341 5342 5341 5342 5343 5345 5348 5351 5355 5359 5364 5369
5411 5404 5397 5389 5383 5378 5373 5368 5365 5361 5358 5356 5353 5351 5348 5345 5342 5340 5337 5335 5334 5333 5333 5331 5331 5329 5329 5331 5331 5331 5332 5333 5336 5339 5342 5346 5351 5355
5394 5388 5382 5376 5370 5365 5361 5356 5352 5349 5346 5344 5341 5339 5336 5334 5332 5329 5327 5325 5323 5322 5321 5320 5319 5319 5318 5319 5320 5320 5320 5322 5324 5327 5330 5334 5338 5342
5379 5373 5368 5363 5358 5354 5349 5345 5341 5337 5335 5332 5330 5328 5325 5323 5321 5319 5317 5315 5313 5311 5310 5308 5308 5307 5307 5308 5308 5309 5310 5311 5312 5315 5317 5321 5325 5329
5366 5361 5356 5351 5346 5341 5338 5333 5330 5326 5323 5321 5319 5317 5315 5312 5310 5308 5306 5304 5302 5300 5299 5297 5296 5295 5295 5296 5296 5297 5298 5299 5301 5302 5305 5308 5312 5316
5354 5350 5345 5340 5335 5331 5327 5323 5319 5316 5313 5311 5308 5306 5304 5302 5299 5297 5295 5293 5291 5289 5287 5286 5284 5284 5283 5284 5284 5285 5286 5287 5288 5290 5292 5295 5299 5303
5342 5338 5333 5329 5324 5320 5316 5313 5309 5306 5303 5300 5298 5295 5293 5291 5289 5286 5284 5281 5279 5278 5276 5275 5273 5273 5273 5273 5273 5273 5273 5274 5276 5277 5279 5282 5286 5289
5331 5327 5322 5318 5314 5310 5306 5303 5300 5296 5293 5290 5288 5285 5283 5280 5278 5275 5273 5270 5268 5267 5265 5263 5262 5261 5261 5261 5261 5261 5261 5262 5263 5265 5267 5269 5272 5275
5321 5316 5312 5308 5304 5300 5296 5293 5290 5286 5283 5280 5278 5275 5272 5270 5267 5264 5262 5259 5258 5256 5254 5252 5251 5250 5250 5250 5250 5249 5249 5249 5250 5252 5254 5256 5258 5260
5311 5307 5302 5298 5294 5290 5287 5283 5280 5277 5274 5270 5267 5265 5262 5259 5257 5254 5251 5249 5247 5245 5244 5242 5240 5239 5238 5238 5239 5238 5237 5237 5238 5239 5240 5242 5244 5246
5301 5297 5293 5289 5285 5281 5277 5274 5271 5267 5264 5261 5258 5255 5252 5249 5247 5244 5241 5239 5237 5235 5233 5232 5230 5228 5228 5227 5227 5227 5226 5225 5225 5226 5227 5229 5230 5232
5292 5288 5284 5280 5276 5272 5269 5265 5262 5258 5255 5251 5248 5245 5242 5240 5237 5234 5232 5229 5227 5224 5223 5221 5219 5218 5217 5216 5216 5215 5215 5214 5213 5213 5215 5215 5216 5218